Time,TemperatureF,DewpointF,PressureIn,WindDirection,WindDirectionDegrees,WindSpeedMPH,WindSpeedGustMPH,Humidity,HourlyPrecipIn,Conditions,Clouds,dailyrainin,SoftwareType,DateUTC
2013-02-06 00:00:00,25.4,23.7,29.92,NNW,334,3.0,4.0,93,0.00,,,0.00,Wunderground v.1.15,2013-02-06 05:00:00,
2013-02-06 00:03:00,25.5,23.8,29.92,NNW,334,1.0,3.0,93,0.00,,,0.00,Wunderground v.1.15,2013-02-06 05:03:00,
2013-02-06 00:09:00,25.5,23.8,29.92,NNW,334,3.0,4.0,93,0.00,,,0.00,Wunderground v.1.15,2013-02-06 05:09:00,
2013-02-06 00:15:00,25.5,23.8,29.92,NNW,334,0.0,3.0,93,0.00,,,0.00,Wunderground v.1.15,2013-02-06 05:15:00,
2013-02-06 00:21:00,25.6,23.9,29.91,NNW,334,1.0,4.0,93,0.00,,,0.00,Wunderground v.1.15,2013-02-06 05:21:00,
2013-02-06 00:26:00,25.6,23.9,29.91,NNW,334,2.0,2.0,93,0.00,,,0.00,Wunderground v.1.15,2013-02-06 05:26:00,
2013-02-06 00:32:00,25.6,23.9,29.91,NNW,334,0.0,4.0,93,0.00,,,0.00,Wunderground v.1.15,2013-02-06 05:32:00,
2013-02-06 00:38:00,25.7,24.0,29.91,NNW,334,0.0,2.0,93,0.00,,,0.00,Wunderground v.1.15,2013-02-06 05:38:00,
2013-02-06 00:43:00,25.7,24.0,29.91,NNW,334,3.0,3.0,93,0.00,,,0.00,Wunderground v.1.15,2013-02-06 05:43:00,
2013-02-06 00:49:00,25.7,24.0,29.91,NNW,334,1.0,3.0,93,0.00,,,0.00,Wunderground v.1.15,2013-02-06 05:49:00,
2013-02-06 00:55:00,25.8,24.1,29.91,NNW,334,3.0,3.0,93,0.00,,,0.00,Wunderground v.1.15,2013-02-06 05:55:00,
2013-02-06 01:01:00,25.8,24.1,29.91,NNW,334,2.0,2.0,93,0.00,,,0.00,Wunderground v.1.15,2013-02-06 06:01:00,
2013-02-06 01:07:00,25.9,24.2,29.91,NNW,334,2.0,3.0,93,0.00,,,0.00,Wunderground v.1.15,2013-02-06 06:07:00,
2013-02-06 01:13:00,25.9,24.2,29.92,NNW,334,2.0,3.0,93,0.00,,,0.00,Wunderground v.1.15,2013-02-06 06:13:00,
2013-02-06 01:18:00,25.9,24.2,29.92,NW,315,2.0,3.0,93,0.00,,,0.00,Wunderground v.1.15,2013-02-06 06:18:00,
2013-02-06 01:23:00,25.9,24.2,29.92,NW,316,2.0,2.0,93,0.00,,,0.00,Wunderground v.1.15,2013-02-06 06:23:00,
2013-02-06 01:29:00,25.9,24.2,29.92,NW,316,1.0,2.0,93,0.00,,,0.00,Wunderground v.1.15,2013-02-06 06:29:00,
2013-02-06 01:36:00,25.9,24.2,29.92,NW,316,0.0,3.0,93,0.00,,,0.00,Wunderground v.1.15,2013-02-06 06:36:00,
2013-02-06 01:42:00,25.9,24.2,29.91,NW,316,0.0,1.0,93,0.00,,,0.00,Wunderground v.1.15,2013-02-06 06:42:00,
2013-02-06 01:47:00,25.9,24.2,29.91,NW,316,0.0,1.0,93,0.00,,,0.00,Wunderground v.1.15,2013-02-06 06:47:00,
2013-02-06 01:53:00,25.9,24.2,29.91,NW,316,1.0,1.0,93,0.00,,,0.00,Wunderground v.1.15,2013-02-06 06:53:00,
2013-02-06 01:59:00,25.9,24.2,29.91,NW,316,2.0,3.0,93,0.00,,,0.00,Wunderground v.1.15,2013-02-06 06:59:00,
2013-02-06 02:04:00,25.9,24.2,29.91,NW,316,4.0,4.0,93,0.00,,,0.00,Wunderground v.1.15,2013-02-06 07:04:00,
2013-02-06 02:09:00,25.9,24.2,29.91,NW,316,3.0,4.0,93,0.00,,,0.00,Wunderground v.1.15,2013-02-06 07:09:00,
2013-02-06 02:15:00,25.9,24.2,29.91,NW,316,2.0,3.0,93,0.00,,,0.00,Wunderground v.1.15,2013-02-06 07:15:00,
2013-02-06 02:20:00,25.9,24.2,29.92,NW,316,4.0,4.0,93,0.00,,,0.00,Wunderground v.1.15,2013-02-06 07:20:00,
2013-02-06 02:25:00,25.9,24.2,29.91,NW,316,4.0,4.0,93,0.00,,,0.00,Wunderground v.1.15,2013-02-06 07:25:00,
2013-02-06 02:30:00,26.0,24.3,29.91,NW,316,4.0,4.0,93,0.00,,,0.00,Wunderground v.1.15,2013-02-06 07:30:00,
2013-02-06 02:35:00,26.0,24.3,29.91,NW,316,3.0,4.0,93,0.00,,,0.00,Wunderground v.1.15,2013-02-06 07:35:00,
2013-02-06 02:40:00,26.0,24.3,29.92,NW,316,3.0,3.0,93,0.00,,,0.00,Wunderground v.1.15,2013-02-06 07:40:00,
2013-02-06 02:45:00,26.0,24.3,29.92,NW,316,4.0,5.0,93,0.00,,,0.00,Wunderground v.1.15,2013-02-06 07:45:00,
2013-02-06 02:50:00,25.9,24.2,29.91,NNW,336,4.0,4.0,93,0.00,,,0.00,Wunderground v.1.15,2013-02-06 07:50:00,
2013-02-06 02:55:00,26.0,24.3,29.91,NW,321,2.0,5.0,93,0.00,,,0.00,Wunderground v.1.15,2013-02-06 07:55:00,
2013-02-06 03:00:00,26.0,24.3,29.91,NW,321,3.0,4.0,93,0.00,,,0.00,Wunderground v.1.15,2013-02-06 08:00:00,
2013-02-06 03:05:00,26.0,24.3,29.91,NNW,338,5.0,5.0,93,0.00,,,0.00,Wunderground v.1.15,2013-02-06 08:05:00,
2013-02-06 03:10:00,26.0,24.3,29.90,NNW,331,4.0,4.0,93,0.00,,,0.00,Wunderground v.1.15,2013-02-06 08:10:00,
2013-02-06 03:15:00,26.0,24.3,29.90,NNW,335,4.0,5.0,93,0.00,,,0.00,Wunderground v.1.15,2013-02-06 08:15:00,
2013-02-06 03:21:00,26.0,24.3,29.90,NNW,327,3.0,5.0,93,0.00,,,0.00,Wunderground v.1.15,2013-02-06 08:21:00,
2013-02-06 03:26:00,26.0,24.5,29.90,NNW,327,3.0,5.0,94,0.00,,,0.00,Wunderground v.1.15,2013-02-06 08:26:00,
2013-02-06 03:31:00,26.1,24.6,29.90,NNW,327,4.0,4.0,94,0.00,,,0.00,Wunderground v.1.15,2013-02-06 08:31:00,
2013-02-06 03:36:00,26.1,24.4,29.90,NNW,327,3.0,4.0,93,0.00,,,0.00,Wunderground v.1.15,2013-02-06 08:36:00,
2013-02-06 03:41:00,26.0,24.3,29.91,NNW,327,3.0,3.0,93,0.00,,,0.00,Wunderground v.1.15,2013-02-06 08:41:00,
2013-02-06 03:47:00,26.0,24.3,29.91,NNW,327,1.0,3.0,93,0.00,,,0.00,Wunderground v.1.15,2013-02-06 08:47:00,
2013-02-06 03:52:00,26.0,24.3,29.90,NNW,327,1.0,2.0,93,0.00,,,0.00,Wunderground v.1.15,2013-02-06 08:52:00,
2013-02-06 03:57:00,25.9,24.2,29.91,NNW,327,1.0,2.0,93,0.00,,,0.00,Wunderground v.1.15,2013-02-06 08:57:00,
2013-02-06 04:02:00,25.9,24.2,29.91,NNW,327,0.0,2.0,93,0.00,,,0.00,Wunderground v.1.15,2013-02-06 09:02:00,
2013-02-06 04:07:00,25.9,24.2,29.91,NNW,327,0.0,2.0,93,0.00,,,0.00,Wunderground v.1.15,2013-02-06 09:07:00,
2013-02-06 04:12:00,25.8,24.1,29.91,NNW,327,0.0,1.0,93,0.00,,,0.00,Wunderground v.1.15,2013-02-06 09:12:00,
2013-02-06 04:17:00,25.8,24.1,29.92,NNW,327,0.0,1.0,93,0.00,,,0.00,Wunderground v.1.15,2013-02-06 09:17:00,
2013-02-06 04:22:00,25.8,24.1,29.92,NNW,327,0.0,1.0,93,0.00,,,0.00,Wunderground v.1.15,2013-02-06 09:22:00,
2013-02-06 04:27:00,25.8,24.1,29.92,NNW,327,0.0,1.0,93,0.00,,,0.00,Wunderground v.1.15,2013-02-06 09:27:00,
2013-02-06 04:32:00,25.8,24.1,29.92,NNW,327,0.0,0.0,93,0.00,,,0.00,Wunderground v.1.15,2013-02-06 09:32:00,
2013-02-06 04:37:00,25.8,24.1,29.92,NNW,327,1.0,2.0,93,0.00,,,0.00,Wunderground v.1.15,2013-02-06 09:37:00,
2013-02-06 04:42:00,25.8,24.1,29.92,NNW,327,0.0,1.0,93,0.00,,,0.00,Wunderground v.1.15,2013-02-06 09:42:00,
2013-02-06 04:47:00,25.8,24.1,29.92,NNW,327,1.0,2.0,93,0.00,,,0.00,Wunderground v.1.15,2013-02-06 09:47:00,
2013-02-06 04:53:00,25.8,24.1,29.92,NNW,327,0.0,0.0,93,0.00,,,0.00,Wunderground v.1.15,2013-02-06 09:53:00,
2013-02-06 04:58:00,25.8,24.1,29.92,NNW,327,0.0,0.0,93,0.00,,,0.00,Wunderground v.1.15,2013-02-06 09:58:00,
2013-02-06 05:03:00,25.8,24.1,29.92,NNW,327,0.0,0.0,93,0.00,,,0.00,Wunderground v.1.15,2013-02-06 10:03:00,
2013-02-06 05:08:00,25.8,24.1,29.93,NNW,327,0.0,0.0,93,0.00,,,0.00,Wunderground v.1.15,2013-02-06 10:08:00,
2013-02-06 05:13:00,25.8,24.1,29.93,NNW,327,0.0,0.0,93,0.00,,,0.00,Wunderground v.1.15,2013-02-06 10:13:00,
2013-02-06 05:18:00,25.8,24.1,29.93,NNW,327,0.0,0.0,93,0.00,,,0.00,Wunderground v.1.15,2013-02-06 10:18:00,
2013-02-06 05:23:00,25.8,24.1,29.93,NNW,327,0.0,0.0,93,0.00,,,0.00,Wunderground v.1.15,2013-02-06 10:23:00,
2013-02-06 05:28:00,25.8,24.1,29.93,NNW,327,0.0,0.0,93,0.00,,,0.00,Wunderground v.1.15,2013-02-06 10:28:00,
2013-02-06 05:34:00,25.8,24.1,29.93,NNW,327,0.0,0.0,93,0.00,,,0.00,Wunderground v.1.15,2013-02-06 10:34:00,
2013-02-06 05:39:00,25.8,24.1,29.93,NNW,327,0.0,0.0,93,0.00,,,0.00,Wunderground v.1.15,2013-02-06 10:39:00,
2013-02-06 05:44:00,25.8,24.1,29.93,NNW,327,0.0,0.0,93,0.00,,,0.00,Wunderground v.1.15,2013-02-06 10:44:00,
2013-02-06 05:49:00,25.7,24.0,29.93,NNW,327,0.0,0.0,93,0.00,,,0.00,Wunderground v.1.15,2013-02-06 10:49:00,
2013-02-06 05:54:00,25.7,24.2,29.93,NNW,327,0.0,0.0,94,0.00,,,0.00,Wunderground v.1.15,2013-02-06 10:54:00,
2013-02-06 05:59:00,25.7,24.2,29.93,NNW,327,0.0,0.0,94,0.00,,,0.00,Wunderground v.1.15,2013-02-06 10:59:00,
2013-02-06 06:04:00,25.7,24.2,29.94,NNW,327,0.0,0.0,94,0.00,,,0.00,Wunderground v.1.15,2013-02-06 11:04:00,
2013-02-06 06:10:00,25.7,24.2,29.94,NNW,327,0.0,0.0,94,0.00,,,0.00,Wunderground v.1.15,2013-02-06 11:10:00,
2013-02-06 06:15:00,25.7,24.2,29.94,NNW,327,0.0,0.0,94,0.00,,,0.00,Wunderground v.1.15,2013-02-06 11:15:00,
2013-02-06 06:20:00,25.6,24.1,29.94,NNW,327,0.0,0.0,94,0.00,,,0.00,Wunderground v.1.15,2013-02-06 11:20:00,
2013-02-06 06:25:00,25.6,24.1,29.94,NNW,327,0.0,0.0,94,0.00,,,0.00,Wunderground v.1.15,2013-02-06 11:25:00,
2013-02-06 06:30:00,25.6,24.1,29.94,NNW,327,0.0,0.0,94,0.00,,,0.00,Wunderground v.1.15,2013-02-06 11:30:00,
2013-02-06 06:35:00,25.6,24.1,29.95,NNW,327,0.0,0.0,94,0.00,,,0.00,Wunderground v.1.15,2013-02-06 11:35:00,
2013-02-06 06:40:00,25.6,24.1,29.95,NNW,327,0.0,0.0,94,0.00,,,0.00,Wunderground v.1.15,2013-02-06 11:40:00,
2013-02-06 06:45:00,25.6,24.1,29.95,NNW,327,0.0,0.0,94,0.00,,,0.00,Wunderground v.1.15,2013-02-06 11:45:00,
2013-02-06 06:50:00,25.7,24.2,29.95,NNW,327,0.0,0.0,94,0.00,,,0.00,Wunderground v.1.15,2013-02-06 11:50:00,
2013-02-06 06:55:00,25.7,24.2,29.95,NNW,327,0.0,0.0,94,0.00,,,0.00,Wunderground v.1.15,2013-02-06 11:55:00,
2013-02-06 07:00:00,25.7,24.2,29.95,NNW,327,2.0,2.0,94,0.00,,,0.00,Wunderground v.1.15,2013-02-06 12:00:00,
2013-02-06 07:05:00,25.8,24.3,29.96,NNW,327,2.0,3.0,94,0.00,,,0.00,Wunderground v.1.15,2013-02-06 12:05:00,
2013-02-06 07:10:00,25.9,24.4,29.96,NNW,327,0.0,1.0,94,0.00,,,0.00,Wunderground v.1.15,2013-02-06 12:10:00,
2013-02-06 07:16:00,26.0,24.5,29.97,NNW,327,1.0,1.0,94,0.00,,,0.00,Wunderground v.1.15,2013-02-06 12:16:00,
2013-02-06 07:21:00,26.0,24.5,29.97,NNW,327,0.0,2.0,94,0.00,,,0.00,Wunderground v.1.15,2013-02-06 12:21:00,
2013-02-06 07:26:00,26.1,24.6,29.97,NNW,327,0.0,2.0,94,0.00,,,0.00,Wunderground v.1.15,2013-02-06 12:26:00,
2013-02-06 07:31:00,26.1,24.6,29.97,NNW,327,0.0,0.0,94,0.00,,,0.00,Wunderground v.1.15,2013-02-06 12:31:00,
2013-02-06 07:36:00,26.2,24.7,29.97,NNW,327,0.0,0.0,94,0.00,,,0.00,Wunderground v.1.15,2013-02-06 12:36:00,
2013-02-06 07:41:00,26.3,24.8,29.98,NNW,327,0.0,0.0,94,0.00,,,0.00,Wunderground v.1.15,2013-02-06 12:41:00,
2013-02-06 07:46:00,26.4,24.9,29.98,NNW,327,0.0,0.0,94,0.00,,,0.00,Wunderground v.1.15,2013-02-06 12:46:00,
2013-02-06 07:52:00,26.6,25.1,29.98,NNW,327,0.0,0.0,94,0.00,,,0.00,Wunderground v.1.15,2013-02-06 12:52:00,
2013-02-06 07:57:00,26.7,25.2,29.98,NNW,327,0.0,0.0,94,0.00,,,0.00,Wunderground v.1.15,2013-02-06 12:57:00,
2013-02-06 08:02:00,26.9,25.4,29.99,NNW,327,0.0,0.0,94,0.00,,,0.00,Wunderground v.1.15,2013-02-06 13:02:00,
2013-02-06 08:07:00,27.0,25.5,29.99,NNW,327,0.0,0.0,94,0.00,,,0.00,Wunderground v.1.15,2013-02-06 13:07:00,
2013-02-06 08:12:00,27.0,25.2,29.99,NNW,327,0.0,0.0,93,0.00,,,0.00,Wunderground v.1.15,2013-02-06 13:12:00,
2013-02-06 08:17:00,27.1,25.3,29.99,NNW,327,0.0,1.0,93,0.00,,,0.00,Wunderground v.1.15,2013-02-06 13:17:00,
2013-02-06 08:22:00,27.1,25.3,29.99,NNW,327,0.0,0.0,93,0.00,,,0.00,Wunderground v.1.15,2013-02-06 13:22:00,
2013-02-06 08:27:00,27.2,25.4,29.99,NNW,327,0.0,0.0,93,0.00,,,0.00,Wunderground v.1.15,2013-02-06 13:27:00,
2013-02-06 08:32:00,27.4,25.6,29.99,NNW,327,0.0,0.0,93,0.00,,,0.00,Wunderground v.1.15,2013-02-06 13:32:00,
2013-02-06 08:37:00,27.5,25.7,29.99,NNW,327,0.0,0.0,93,0.00,,,0.00,Wunderground v.1.15,2013-02-06 13:37:00,
2013-02-06 08:42:00,27.7,25.9,29.99,NNW,327,0.0,0.0,93,0.00,,,0.00,Wunderground v.1.15,2013-02-06 13:42:00,
2013-02-06 08:48:00,27.9,26.1,29.99,NNW,327,0.0,0.0,93,0.00,,,0.00,Wunderground v.1.15,2013-02-06 13:48:00,
2013-02-06 08:53:00,28.1,26.1,29.99,NNW,327,0.0,1.0,92,0.00,,,0.00,Wunderground v.1.15,2013-02-06 13:53:00,
2013-02-06 08:58:00,28.3,26.3,29.99,NNW,327,0.0,1.0,92,0.00,,,0.00,Wunderground v.1.15,2013-02-06 13:58:00,
2013-02-06 09:03:00,28.4,26.4,30.00,NNW,327,3.0,3.0,92,0.00,,,0.00,Wunderground v.1.15,2013-02-06 14:03:00,
2013-02-06 09:08:00,28.6,26.3,29.99,NNW,327,0.0,3.0,91,0.00,,,0.00,Wunderground v.1.15,2013-02-06 14:08:00,
2013-02-06 09:13:00,28.7,26.4,30.00,NNW,327,0.0,3.0,91,0.00,,,0.00,Wunderground v.1.15,2013-02-06 14:13:00,
2013-02-06 09:19:00,29.0,26.7,30.00,NNW,327,2.0,4.0,91,0.00,,,0.00,Wunderground v.1.15,2013-02-06 14:19:00,
2013-02-06 09:24:00,29.3,26.7,30.00,NW,311,0.0,4.0,90,0.00,,,0.00,Wunderground v.1.15,2013-02-06 14:24:00,
2013-02-06 09:29:00,29.6,27.0,30.00,NW,311,0.0,4.0,90,0.00,,,0.00,Wunderground v.1.15,2013-02-06 14:29:00,
2013-02-06 09:34:00,29.8,27.2,30.01,NW,311,1.0,3.0,90,0.00,,,0.00,Wunderground v.1.15,2013-02-06 14:34:00,
2013-02-06 09:39:00,30.1,27.3,30.00,NW,308,2.0,3.0,89,0.00,,,0.00,Wunderground v.1.15,2013-02-06 14:39:00,
2013-02-06 09:44:00,30.4,27.3,30.00,WSW,247,1.0,2.0,88,0.00,,,0.00,Wunderground v.1.15,2013-02-06 14:44:00,
2013-02-06 09:49:00,30.7,27.6,30.00,WNW,286,0.0,4.0,88,0.00,,,0.00,Wunderground v.1.15,2013-02-06 14:49:00,
2013-02-06 09:54:00,31.1,27.7,30.00,NW,317,4.0,5.0,87,0.00,,,0.00,Wunderground v.1.15,2013-02-06 14:54:00,
2013-02-06 09:59:00,31.4,27.4,30.00,NW,320,3.0,5.0,85,0.00,,,0.00,Wunderground v.1.15,2013-02-06 14:59:00,
2013-02-06 10:04:00,30.9,26.9,30.00,NW,321,2.0,3.0,85,0.00,,,0.00,Wunderground v.1.15,2013-02-06 15:04:00,
2013-02-06 10:09:00,31.4,28.0,30.00,SSW,203,3.0,9.0,87,0.00,,,0.00,Wunderground v.1.15,2013-02-06 15:09:00,
2013-02-06 10:14:00,32.2,28.2,30.00,SSW,207,3.0,5.0,85,0.00,,,0.00,Wunderground v.1.15,2013-02-06 15:14:00,
2013-02-06 10:19:00,33.0,28.7,30.00,WNW,298,1.0,5.0,84,0.00,,,0.00,Wunderground v.1.15,2013-02-06 15:19:00,
2013-02-06 10:25:00,33.4,28.2,30.00,WNW,297,5.0,7.0,81,0.00,,,0.00,Wunderground v.1.15,2013-02-06 15:25:00,
2013-02-06 10:30:00,33.4,27.9,30.00,SSW,211,2.0,4.0,80,0.00,,,0.00,Wunderground v.1.15,2013-02-06 15:30:00,
2013-02-06 10:35:00,33.5,27.7,30.00,WSW,254,4.0,7.0,79,0.00,,,0.00,Wunderground v.1.15,2013-02-06 15:35:00,
2013-02-06 10:40:00,33.6,27.8,30.00,West,281,2.0,3.0,79,0.00,,,0.00,Wunderground v.1.15,2013-02-06 15:40:00,
2013-02-06 10:45:00,33.8,27.7,30.00,NW,317,6.0,6.0,78,0.00,,,0.01,Wunderground v.1.15,2013-02-06 15:45:00,
2013-02-06 10:50:00,34.0,27.2,29.99,WSW,248,2.0,4.0,76,0.00,,,0.01,Wunderground v.1.15,2013-02-06 15:50:00,
2013-02-06 10:55:00,34.1,27.0,29.99,NW,317,4.0,8.0,75,0.00,,,0.01,Wunderground v.1.15,2013-02-06 15:55:00,
2013-02-06 11:00:00,34.3,27.2,30.00,NW,305,0.0,4.0,75,0.00,,,0.01,Wunderground v.1.15,2013-02-06 16:00:00,
2013-02-06 11:05:00,34.5,27.4,29.99,NW,311,4.0,5.0,75,0.00,,,0.01,Wunderground v.1.15,2013-02-06 16:05:00,
2013-02-06 11:10:00,35.0,27.5,29.99,West,264,1.0,2.0,74,0.00,,,0.01,Wunderground v.1.15,2013-02-06 16:10:00,
2013-02-06 11:15:00,35.4,26.9,29.99,NNW,348,6.0,10.0,71,0.00,,,0.01,Wunderground v.1.15,2013-02-06 16:15:00,
2013-02-06 11:20:00,35.5,26.3,29.99,NW,322,3.0,6.0,69,0.00,,,0.01,Wunderground v.1.15,2013-02-06 16:20:00,
2013-02-06 11:25:00,35.6,26.4,29.99,NW,311,7.0,8.0,69,0.00,,,0.01,Wunderground v.1.15,2013-02-06 16:25:00,
2013-02-06 11:30:00,35.7,26.2,30.00,NNW,332,3.0,4.0,68,0.00,,,0.01,Wunderground v.1.15,2013-02-06 16:30:00,
2013-02-06 11:36:00,35.6,26.1,29.99,WSW,250,2.0,8.0,68,0.00,,,0.01,Wunderground v.1.15,2013-02-06 16:36:00,
2013-02-06 11:41:00,35.8,25.9,29.99,NNW,333,8.0,10.0,67,0.00,,,0.01,Wunderground v.1.15,2013-02-06 16:41:00,
2013-02-06 11:46:00,36.0,24.6,29.99,WNW,296,8.0,10.0,63,0.00,,,0.01,Wunderground v.1.15,2013-02-06 16:46:00,
2013-02-06 11:51:00,36.3,24.9,29.99,WNW,301,3.0,5.0,63,0.00,,,0.01,Wunderground v.1.15,2013-02-06 16:51:00,
2013-02-06 11:56:00,36.7,25.7,29.99,West,263,0.0,9.0,64,0.00,,,0.01,Wunderground v.1.15,2013-02-06 16:56:00,
2013-02-06 12:01:00,37.1,24.5,29.99,NW,315,7.0,7.0,60,0.00,,,0.02,Wunderground v.1.15,2013-02-06 17:01:00,
2013-02-06 12:06:00,37.5,24.9,29.99,NW,315,3.0,7.0,60,0.00,,,0.02,Wunderground v.1.15,2013-02-06 17:06:00,
2013-02-06 12:11:00,37.9,24.8,29.99,WNW,296,3.0,3.0,59,0.00,,,0.02,Wunderground v.1.15,2013-02-06 17:11:00,
2013-02-06 12:16:00,38.2,24.7,29.98,WSW,242,1.0,6.0,58,0.00,,,0.02,Wunderground v.1.15,2013-02-06 17:16:00,
2013-02-06 12:21:00,38.4,24.5,29.98,West,280,4.0,6.0,57,0.00,,,0.02,Wunderground v.1.15,2013-02-06 17:21:00,
2013-02-06 12:26:00,38.7,24.8,29.98,NW,323,7.0,7.0,57,0.00,,,0.02,Wunderground v.1.15,2013-02-06 17:26:00,
2013-02-06 12:31:00,38.7,23.9,29.98,NW,316,10.0,10.0,55,0.00,,,0.02,Wunderground v.1.15,2013-02-06 17:31:00,
2013-02-06 12:36:00,38.6,23.8,29.98,West,273,4.0,10.0,55,0.00,,,0.02,Wunderground v.1.15,2013-02-06 17:36:00,
2013-02-06 12:42:00,38.9,23.7,29.98,WNW,290,4.0,11.0,54,0.00,,,0.02,Wunderground v.1.15,2013-02-06 17:42:00,
2013-02-06 12:47:00,38.9,22.8,29.98,SW,221,4.0,11.0,52,0.00,,,0.02,Wunderground v.1.15,2013-02-06 17:47:00,
2013-02-06 12:52:00,38.8,22.2,29.97,WSW,254,4.0,8.0,51,0.00,,,0.02,Wunderground v.1.15,2013-02-06 17:52:00,
2013-02-06 12:57:00,39.0,22.8,29.97,WNW,294,4.0,8.0,52,0.00,,,0.02,Wunderground v.1.15,2013-02-06 17:57:00,
2013-02-06 13:02:00,38.8,22.7,29.98,North,355,3.0,4.0,52,0.00,,,0.02,Wunderground v.1.15,2013-02-06 18:02:00,
2013-02-06 13:07:00,39.1,22.5,29.98,West,279,7.0,9.0,51,0.00,,,0.02,Wunderground v.1.15,2013-02-06 18:07:00,
2013-02-06 13:12:00,39.2,22.6,29.98,SSE,166,2.0,10.0,51,0.00,,,0.02,Wunderground v.1.15,2013-02-06 18:12:00,
2013-02-06 13:17:00,39.0,22.4,29.98,West,277,2.0,10.0,51,0.00,,,0.02,Wunderground v.1.15,2013-02-06 18:17:00,
2013-02-06 13:23:00,38.4,21.8,29.98,WNW,293,5.0,8.0,51,0.00,,,0.02,Wunderground v.1.15,2013-02-06 18:23:00,
2013-02-06 13:28:00,38.0,22.4,29.98,NW,316,9.0,10.0,53,0.00,,,0.02,Wunderground v.1.15,2013-02-06 18:28:00,
2013-02-06 13:33:00,37.9,22.7,29.98,NW,323,5.0,7.0,54,0.00,,,0.02,Wunderground v.1.15,2013-02-06 18:33:00,
2013-02-06 13:38:00,38.1,22.9,29.98,NW,317,1.0,7.0,54,0.00,,,0.02,Wunderground v.1.15,2013-02-06 18:38:00,
2013-02-06 13:43:00,38.2,23.0,29.98,SW,233,2.0,7.0,54,0.00,,,0.02,Wunderground v.1.15,2013-02-06 18:43:00,
2013-02-06 13:48:00,38.3,22.6,29.99,WNW,291,3.0,7.0,53,0.00,,,0.02,Wunderground v.1.15,2013-02-06 18:48:00,
2013-02-06 13:53:00,38.4,22.3,29.99,WNW,298,3.0,7.0,52,0.00,,,0.02,Wunderground v.1.15,2013-02-06 18:53:00,
2013-02-06 13:58:00,38.2,22.1,29.99,SW,223,6.0,7.0,52,0.00,,,0.02,Wunderground v.1.15,2013-02-06 18:58:00,
2013-02-06 14:03:00,37.8,22.6,29.99,WNW,302,5.0,10.0,54,0.00,,,0.02,Wunderground v.1.15,2013-02-06 19:03:00,
2013-02-06 14:08:00,37.6,21.1,30.00,WNW,295,5.0,11.0,51,0.00,,,0.02,Wunderground v.1.15,2013-02-06 19:08:00,
2013-02-06 14:13:00,37.6,21.5,30.00,WNW,294,3.0,8.0,52,0.00,,,0.02,Wunderground v.1.15,2013-02-06 19:13:00,
2013-02-06 14:18:00,37.5,21.9,30.00,NNW,332,3.0,10.0,53,0.00,,,0.02,Wunderground v.1.15,2013-02-06 19:18:00,
2013-02-06 14:23:00,37.3,21.7,30.00,NW,323,4.0,9.0,53,0.00,,,0.02,Wunderground v.1.15,2013-02-06 19:23:00,
2013-02-06 14:28:00,37.2,22.1,30.00,NW,305,10.0,10.0,54,0.00,,,0.02,Wunderground v.1.15,2013-02-06 19:28:00,
2013-02-06 14:34:00,37.0,21.4,30.01,WNW,287,3.0,9.0,53,0.00,,,0.02,Wunderground v.1.15,2013-02-06 19:34:00,
2013-02-06 14:39:00,36.8,21.3,30.01,West,262,2.0,9.0,53,0.00,,,0.02,Wunderground v.1.15,2013-02-06 19:39:00,
2013-02-06 14:44:00,36.4,21.8,30.01,West,275,2.0,10.0,55,0.00,,,0.02,Wunderground v.1.15,2013-02-06 19:44:00,
2013-02-06 14:49:00,36.2,22.0,30.01,West,263,0.0,10.0,56,0.00,,,0.02,Wunderground v.1.15,2013-02-06 19:49:00,
2013-02-06 14:54:00,36.1,21.5,30.01,NW,306,5.0,9.0,55,0.00,,,0.02,Wunderground v.1.15,2013-02-06 19:54:00,
2013-02-06 14:59:00,36.0,20.5,30.02,WNW,302,1.0,12.0,53,0.00,,,0.02,Wunderground v.1.15,2013-02-06 19:59:00,
2013-02-06 15:04:00,36.0,20.9,30.02,NNW,336,4.0,10.0,54,0.00,,,0.02,Wunderground v.1.15,2013-02-06 20:04:00,
2013-02-06 15:09:00,36.1,20.6,30.02,NNW,329,6.0,10.0,53,0.00,,,0.02,Wunderground v.1.15,2013-02-06 20:09:00,
2013-02-06 15:15:00,36.4,20.4,30.03,SSE,159,1.0,6.0,52,0.00,,,0.02,Wunderground v.1.15,2013-02-06 20:15:00,
2013-02-06 15:20:00,36.5,20.1,30.03,West,259,7.0,7.0,51,0.00,,,0.02,Wunderground v.1.15,2013-02-06 20:20:00,
2013-02-06 15:25:00,36.5,20.1,30.03,West,267,6.0,8.0,51,0.00,,,0.02,Wunderground v.1.15,2013-02-06 20:25:00,
2013-02-06 15:30:00,36.5,20.1,30.03,NW,308,3.0,5.0,51,0.00,,,0.02,Wunderground v.1.15,2013-02-06 20:30:00,
2013-02-06 15:35:00,36.2,19.8,30.03,WNW,302,2.0,11.0,51,0.00,,,0.02,Wunderground v.1.15,2013-02-06 20:35:00,
2013-02-06 15:40:00,36.1,20.2,30.03,WNW,296,5.0,5.0,52,0.00,,,0.02,Wunderground v.1.15,2013-02-06 20:40:00,
2013-02-06 15:45:00,36.1,20.6,30.03,NW,311,8.0,9.0,53,0.00,,,0.02,Wunderground v.1.15,2013-02-06 20:45:00,
2013-02-06 15:50:00,36.0,20.5,30.03,NNW,348,0.0,3.0,53,0.00,,,0.02,Wunderground v.1.15,2013-02-06 20:50:00,
2013-02-06 15:55:00,36.0,20.5,30.03,WNW,282,3.0,5.0,53,0.00,,,0.02,Wunderground v.1.15,2013-02-06 20:55:00,
2013-02-06 16:01:00,36.0,20.5,30.03,WSW,250,1.0,3.0,53,0.00,,,0.02,Wunderground v.1.15,2013-02-06 21:01:00,
2013-02-06 16:06:00,35.9,20.4,30.04,NW,311,3.0,7.0,53,0.00,,,0.02,Wunderground v.1.15,2013-02-06 21:06:00,
2013-02-06 16:11:00,35.8,20.3,30.04,NW,316,5.0,7.0,53,0.00,,,0.02,Wunderground v.1.15,2013-02-06 21:11:00,
2013-02-06 16:16:00,35.8,20.3,30.04,NW,325,2.0,12.0,53,0.00,,,0.02,Wunderground v.1.15,2013-02-06 21:16:00,
2013-02-06 16:21:00,35.8,20.3,30.04,West,276,4.0,9.0,53,0.00,,,0.02,Wunderground v.1.15,2013-02-06 21:21:00,
2013-02-06 16:27:00,35.7,20.7,30.05,WNW,288,2.0,10.0,54,0.00,,,0.02,Wunderground v.1.15,2013-02-06 21:27:00,
2013-02-06 16:32:00,35.6,20.6,30.05,WNW,291,4.0,7.0,54,0.00,,,0.02,Wunderground v.1.15,2013-02-06 21:32:00,
2013-02-06 16:37:00,35.4,20.4,30.06,WNW,296,3.0,7.0,54,0.00,,,0.02,Wunderground v.1.15,2013-02-06 21:37:00,
2013-02-06 16:42:00,35.2,20.6,30.06,WNW,299,4.0,5.0,55,0.00,,,0.02,Wunderground v.1.15,2013-02-06 21:42:00,
2013-02-06 16:47:00,35.1,21.0,30.06,West,275,1.0,7.0,56,0.00,,,0.02,Wunderground v.1.15,2013-02-06 21:47:00,
2013-02-06 16:52:00,34.8,20.7,30.06,WNW,282,2.0,5.0,56,0.00,,,0.02,Wunderground v.1.15,2013-02-06 21:52:00,
2013-02-06 16:57:00,34.7,20.6,30.06,NW,309,2.0,5.0,56,0.00,,,0.02,Wunderground v.1.15,2013-02-06 21:57:00,
2013-02-06 17:02:00,34.5,20.8,30.06,WNW,299,1.0,2.0,57,0.00,,,0.02,Wunderground v.1.15,2013-02-06 22:02:00,
2013-02-06 17:07:00,34.3,20.6,30.07,WNW,291,1.0,4.0,57,0.00,,,0.02,Wunderground v.1.15,2013-02-06 22:07:00,
2013-02-06 17:12:00,34.1,20.4,30.07,NW,316,3.0,3.0,57,0.00,,,0.02,Wunderground v.1.15,2013-02-06 22:12:00,
2013-02-06 17:18:00,33.9,20.7,30.08,NW,309,1.0,4.0,58,0.00,,,0.02,Wunderground v.1.15,2013-02-06 22:18:00,
2013-02-06 17:23:00,33.6,20.4,30.08,NW,307,0.0,2.0,58,0.00,,,0.02,Wunderground v.1.15,2013-02-06 22:23:00,
2013-02-06 17:28:00,33.3,19.7,30.08,WNW,300,2.0,8.0,57,0.00,,,0.02,Wunderground v.1.15,2013-02-06 22:28:00,
2013-02-06 17:33:00,33.3,20.1,30.08,WNW,300,0.0,5.0,58,0.00,,,0.02,Wunderground v.1.15,2013-02-06 22:33:00,
2013-02-06 17:38:00,33.0,19.8,30.08,WNW,292,1.0,5.0,58,0.00,,,0.02,Wunderground v.1.15,2013-02-06 22:38:00,
2013-02-06 17:43:00,32.8,20.0,30.09,SSW,196,0.0,2.0,59,0.00,,,0.02,Wunderground v.1.15,2013-02-06 22:43:00,
2013-02-06 17:48:00,32.5,19.3,30.09,West,280,1.0,4.0,58,0.00,,,0.02,Wunderground v.1.15,2013-02-06 22:48:00,
2013-02-06 17:53:00,32.5,18.9,30.09,West,272,1.0,1.0,57,0.00,,,0.02,Wunderground v.1.15,2013-02-06 22:53:00,
2013-02-06 17:58:00,32.3,18.8,30.09,West,273,1.0,4.0,57,0.00,,,0.02,Wunderground v.1.15,2013-02-06 22:58:00,
2013-02-06 18:03:00,32.3,18.8,30.10,WNW,303,5.0,7.0,57,0.00,,,0.02,Wunderground v.1.15,2013-02-06 23:03:00,
2013-02-06 18:09:00,32.5,18.1,30.11,WNW,295,2.0,7.0,55,0.00,,,0.02,Wunderground v.1.15,2013-02-06 23:09:00,
2013-02-06 18:14:00,32.8,18.4,30.11,WNW,295,1.0,6.0,55,0.00,,,0.02,Wunderground v.1.15,2013-02-06 23:14:00,
2013-02-06 18:19:00,32.9,17.6,30.11,WNW,285,4.0,8.0,53,0.00,,,0.02,Wunderground v.1.15,2013-02-06 23:19:00,
2013-02-06 18:24:00,33.0,16.8,30.12,WNW,282,4.0,8.0,51,0.00,,,0.02,Wunderground v.1.15,2013-02-06 23:24:00,
2013-02-06 18:29:00,33.2,16.5,30.12,SW,222,1.0,8.0,50,0.00,,,0.02,Wunderground v.1.15,2013-02-06 23:29:00,
2013-02-06 18:34:00,33.2,16.1,30.12,West,269,4.0,10.0,49,0.00,,,0.02,Wunderground v.1.15,2013-02-06 23:34:00,
2013-02-06 18:39:00,33.1,16.0,30.13,NNW,327,5.0,10.0,49,0.00,,,0.02,Wunderground v.1.15,2013-02-06 23:39:00,
2013-02-06 18:44:00,33.0,15.9,30.13,NNW,327,1.0,5.0,49,0.00,,,0.02,Wunderground v.1.15,2013-02-06 23:44:00,
2013-02-06 18:49:00,32.9,15.8,30.13,NW,313,6.0,10.0,49,0.00,,,0.02,Wunderground v.1.15,2013-02-06 23:49:00,
2013-02-06 18:54:00,32.7,15.6,30.14,WNW,290,2.0,10.0,49,0.00,,,0.02,Wunderground v.1.15,2013-02-06 23:54:00,
2013-02-06 18:59:00,32.6,15.5,30.14,NW,311,4.0,10.0,49,0.00,,,0.02,Wunderground v.1.15,2013-02-06 23:59:00,
2013-02-06 19:04:00,32.6,15.5,30.14,South,174,0.0,9.0,49,0.00,,,0.02,Wunderground v.1.15,2013-02-07 00:04:00,
2013-02-06 19:09:00,32.5,15.0,30.15,West,265,4.0,12.0,48,0.00,,,0.02,Wunderground v.1.15,2013-02-07 00:09:00,
2013-02-06 19:14:00,32.5,15.0,30.16,WNW,298,4.0,6.0,48,0.00,,,0.02,Wunderground v.1.15,2013-02-07 00:14:00,
2013-02-06 19:19:00,32.4,13.4,30.16,NNW,342,5.0,11.0,45,0.00,,,0.02,Wunderground v.1.15,2013-02-07 00:19:00,
2013-02-06 19:24:00,32.3,12.8,30.16,WNW,291,2.0,11.0,44,0.00,,,0.02,Wunderground v.1.15,2013-02-07 00:24:00,
2013-02-06 19:29:00,32.2,13.2,30.16,West,273,2.0,11.0,45,0.00,,,0.02,Wunderground v.1.15,2013-02-07 00:29:00,
2013-02-06 19:34:00,32.0,13.0,30.16,WNW,303,3.0,6.0,45,0.00,,,0.02,Wunderground v.1.15,2013-02-07 00:34:00,
2013-02-06 19:39:00,31.7,12.8,30.16,WNW,292,2.0,9.0,45,0.00,,,0.02,Wunderground v.1.15,2013-02-07 00:39:00,
2013-02-06 19:44:00,31.5,13.1,30.16,NW,313,8.0,8.0,46,0.00,,,0.02,Wunderground v.1.15,2013-02-07 00:44:00,
2013-02-06 19:49:00,31.4,12.5,30.16,NW,309,6.0,8.0,45,0.00,,,0.02,Wunderground v.1.15,2013-02-07 00:49:00,
2013-02-06 19:54:00,31.3,12.4,30.17,WNW,300,2.0,6.0,45,0.00,,,0.02,Wunderground v.1.15,2013-02-07 00:54:00,
2013-02-06 19:59:00,31.2,12.3,30.17,NNW,330,1.0,8.0,45,0.00,,,0.02,Wunderground v.1.15,2013-02-07 00:59:00,
2013-02-06 20:05:00,31.2,11.8,30.18,WNW,294,3.0,10.0,44,0.00,,,0.02,Wunderground v.1.15,2013-02-07 01:05:00,
2013-02-06 20:10:00,31.1,12.2,30.18,WNW,296,1.0,10.0,45,0.00,,,0.02,Wunderground v.1.15,2013-02-07 01:10:00,
2013-02-06 20:15:00,30.8,12.4,30.18,NW,313,3.0,7.0,46,0.00,,,0.02,Wunderground v.1.15,2013-02-07 01:15:00,
2013-02-06 20:20:00,30.7,11.8,30.19,West,262,2.0,2.0,45,0.00,,,0.02,Wunderground v.1.15,2013-02-07 01:20:00,
2013-02-06 20:25:00,30.5,11.7,30.19,NW,308,2.0,5.0,45,0.00,,,0.02,Wunderground v.1.15,2013-02-07 01:25:00,
2013-02-06 20:30:00,30.4,12.1,30.19,West,275,6.0,6.0,46,0.00,,,0.02,Wunderground v.1.15,2013-02-07 01:30:00,
2013-02-06 20:35:00,30.3,11.0,30.20,NW,317,3.0,8.0,44,0.00,,,0.02,Wunderground v.1.15,2013-02-07 01:35:00,
2013-02-06 20:40:00,30.2,11.9,30.20,NW,308,0.0,3.0,46,0.00,,,0.02,Wunderground v.1.15,2013-02-07 01:40:00,
2013-02-06 20:45:00,30.0,11.7,30.20,NW,305,1.0,6.0,46,0.00,,,0.02,Wunderground v.1.15,2013-02-07 01:45:00,
2013-02-06 20:50:00,30.0,11.2,30.20,NW,319,0.0,3.0,45,0.00,,,0.02,Wunderground v.1.15,2013-02-07 01:50:00,
2013-02-06 20:55:00,29.8,12.0,30.20,SW,228,1.0,7.0,47,0.00,,,0.02,Wunderground v.1.15,2013-02-07 01:55:00,
2013-02-06 21:00:00,29.7,10.9,30.21,SW,234,2.0,3.0,45,0.00,,,0.02,Wunderground v.1.15,2013-02-07 02:00:00,
2013-02-06 21:05:00,29.6,10.8,30.21,WNW,301,1.0,6.0,45,0.00,,,0.02,Wunderground v.1.15,2013-02-07 02:05:00,
2013-02-06 21:10:00,29.5,11.2,30.21,North,355,2.0,3.0,46,0.00,,,0.02,Wunderground v.1.15,2013-02-07 02:10:00,
2013-02-06 21:15:00,29.4,11.1,30.21,NNW,331,5.0,6.0,46,0.00,,,0.02,Wunderground v.1.15,2013-02-07 02:15:00,
2013-02-06 21:20:00,29.2,11.0,30.22,WNW,289,3.0,5.0,46,0.00,,,0.02,Wunderground v.1.15,2013-02-07 02:20:00,
2013-02-06 21:26:00,29.1,10.9,30.22,NNW,341,1.0,6.0,46,0.00,,,0.02,Wunderground v.1.15,2013-02-07 02:26:00,
2013-02-06 21:31:00,29.0,10.8,30.22,NW,314,0.0,2.0,46,0.00,,,0.02,Wunderground v.1.15,2013-02-07 02:31:00,
2013-02-06 21:36:00,28.8,10.1,30.23,WNW,300,3.0,5.0,45,0.00,,,0.02,Wunderground v.1.15,2013-02-07 02:36:00,
2013-02-06 21:41:00,28.7,10.0,30.23,NW,312,3.0,6.0,45,0.00,,,0.02,Wunderground v.1.15,2013-02-07 02:41:00,
2013-02-06 21:46:00,28.6,10.4,30.24,WNW,298,1.0,6.0,46,0.00,,,0.02,Wunderground v.1.15,2013-02-07 02:46:00,
2013-02-06 21:51:00,28.6,9.9,30.24,WNW,290,4.0,4.0,45,0.00,,,0.02,Wunderground v.1.15,2013-02-07 02:51:00,
2013-02-06 21:56:00,28.5,10.3,30.24,West,269,0.0,4.0,46,0.00,,,0.02,Wunderground v.1.15,2013-02-07 02:56:00,
2013-02-06 22:01:00,28.4,9.7,30.24,South,191,1.0,5.0,45,0.00,,,0.02,Wunderground v.1.15,2013-02-07 03:01:00,
2013-02-06 22:07:00,28.3,9.1,30.24,NW,311,5.0,11.0,44,0.00,,,0.02,Wunderground v.1.15,2013-02-07 03:07:00,
2013-02-06 22:12:00,28.4,9.2,30.24,SW,236,2.0,4.0,44,0.00,,,0.02,Wunderground v.1.15,2013-02-07 03:12:00,
2013-02-06 22:17:00,28.3,9.1,30.25,WSW,251,1.0,6.0,44,0.00,,,0.02,Wunderground v.1.15,2013-02-07 03:17:00,
2013-02-06 22:22:00,28.2,9.0,30.25,WNW,290,5.0,5.0,44,0.00,,,0.02,Wunderground v.1.15,2013-02-07 03:22:00,
2013-02-06 22:27:00,28.2,8.0,30.25,NW,313,10.0,11.0,42,0.00,,,0.02,Wunderground v.1.15,2013-02-07 03:27:00,
2013-02-06 22:32:00,28.1,8.4,30.26,West,270,2.0,4.0,43,0.00,,,0.02,Wunderground v.1.15,2013-02-07 03:32:00,
2013-02-06 22:37:00,28.0,8.4,30.26,WNW,295,2.0,8.0,43,0.00,,,0.02,Wunderground v.1.15,2013-02-07 03:37:00,
2013-02-06 22:42:00,27.9,8.8,30.26,NW,304,0.0,4.0,44,0.00,,,0.02,Wunderground v.1.15,2013-02-07 03:42:00,
2013-02-06 22:47:00,27.8,8.2,30.26,NW,311,1.0,7.0,43,0.00,,,0.02,Wunderground v.1.15,2013-02-07 03:47:00,
2013-02-06 22:52:00,27.6,9.0,30.26,WNW,298,0.0,4.0,45,0.00,,,0.02,Wunderground v.1.15,2013-02-07 03:52:00,
2013-02-06 22:57:00,27.4,8.3,30.26,WNW,297,1.0,6.0,44,0.00,,,0.02,Wunderground v.1.15,2013-02-07 03:57:00,
2013-02-06 23:02:00,27.3,8.7,30.26,WNW,300,2.0,6.0,45,0.00,,,0.02,Wunderground v.1.15,2013-02-07 04:02:00,
2013-02-06 23:07:00,27.2,8.1,30.26,NNW,332,5.0,6.0,44,0.00,,,0.02,Wunderground v.1.15,2013-02-07 04:07:00,
2013-02-06 23:12:00,27.3,7.7,30.26,NW,316,12.0,12.0,43,0.00,,,0.02,Wunderground v.1.15,2013-02-07 04:12:00,
2013-02-06 23:17:00,27.3,7.7,30.26,WNW,294,1.0,12.0,43,0.00,,,0.02,Wunderground v.1.15,2013-02-07 04:17:00,
2013-02-06 23:23:00,27.2,7.6,30.26,NW,313,7.0,7.0,43,0.00,,,0.02,Wunderground v.1.15,2013-02-07 04:23:00,
2013-02-06 23:28:00,27.2,7.6,30.26,NW,306,2.0,7.0,43,0.00,,,0.02,Wunderground v.1.15,2013-02-07 04:28:00,
2013-02-06 23:33:00,27.0,8.0,30.26,NW,319,9.0,9.0,44,0.00,,,0.02,Wunderground v.1.15,2013-02-07 04:33:00,
2013-02-06 23:38:00,27.0,6.9,30.26,NNW,338,4.0,9.0,42,0.00,,,0.02,Wunderground v.1.15,2013-02-07 04:38:00,
2013-02-06 23:43:00,27.0,6.9,30.27,WNW,302,3.0,8.0,42,0.00,,,0.02,Wunderground v.1.15,2013-02-07 04:43:00,
2013-02-06 23:49:00,26.9,7.4,30.27,NW,316,6.0,8.0,43,0.00,,,0.02,Wunderground v.1.15,2013-02-07 04:49:00,
2013-02-06 23:54:00,26.8,6.7,30.28,NW,309,8.0,8.0,42,0.00,,,0.02,Wunderground v.1.15,2013-02-07 04:54:00,
2013-02-06 23:59:00,26.7,6.6,30.28,West,271,3.0,8.0,42,0.00,,,0.02,Wunderground v.1.15,2013-02-07 04:59:00,